Date String (YYYY-MM-DD hh:mm:ss) UTC,Instrument flags,absolute air pressure of the measurement (hPa),sample flow rate (lpm),inlet stack bypass flow (lpm),air temperature of the measurement (°C),ambient temperature measured by the external sensor (°C),aerosol sample conditioner tube jacket temperature (°C),OPC LED temperature (°C),internal box temperature (°C),relative humidity of the measurement (%),span deviation,mass concentration of particles derived from Lorenz-Mie calculation of OPC scattering (μg/m³),mass concentration of particles derived from Lorenz-Mie calculation of OPC scattering (μg/m³),mass concentration of particles derived from Lorenz-Mie calculation of OPC scattering (μg/m³)
DateTimeUTC,F1_M11,P_M11,Q1_M11,Q2_M11,T1_M11,T2_M11,T3_M11,T4_M11,T5_M11,U1_M11,ZSPAN_M11,X2_M11,X0_M11,X1_M11
2024-02-25 23:00:00,SystemResetWarning,0821.1,4.99,000.00,023.4,022.7,000.0,031.6,025.1,07.4,0000.0,0002.01,0008.74,0000.97
2024-02-25 23:01:00,SystemResetWarning,0821.2,5.00,000.00,023.4,022.7,000.0,031.6,025.1,07.5,0000.0,0002.01,0008.63,0000.97
2024-02-25 23:02:00,SystemResetWarning,0821.2,5.00,000.00,023.4,022.7,000.0,031.6,025.1,07.6,0000.0,0001.97,0008.71,0000.97
2024-02-25 23:03:00,SystemResetWarning,0821.2,4.99,000.00,023.4,022.7,000.0,031.6,025.1,07.4,0000.0,0001.92,0007.57,0000.96
2024-02-25 23:04:00,SystemResetWarning,0821.3,5.00,000.00,023.4,022.7,000.0,031.6,025.1,07.4,0000.0,0001.97,0007.26,0000.97
2024-02-25 23:05:00,SystemResetWarning,0821.3,5.02,000.00,023.4,022.7,000.0,031.6,025.1,07.4,0000.0,0001.98,0006.95,0000.96
2024-02-25 23:06:00,SystemResetWarning,0821.3,5.00,000.00,023.4,022.7,000.0,031.6,025.1,07.6,0000.0,0001.96,0005.63,0000.95
2024-02-25 23:07:00,SystemResetWarning,0821.6,5.00,000.00,023.4,022.7,000.0,031.6,025.1,07.6,0000.0,0001.95,0005.59,0000.96
2024-02-25 23:08:00,SystemResetWarning,0821.8,4.99,000.00,023.4,022.7,000.0,031.7,025.1,07.6,0000.0,0001.95,0006.08,0000.95
2024-02-25 23:09:00,SystemResetWarning,0821.2,4.99,000.00,023.4,022.7,000.0,031.7,025.1,07.6,0000.0,0001.93,0006.44,0000.95
2024-02-25 23:10:00,SystemResetWarning,0821.6,5.01,000.00,023.4,022.7,000.0,031.7,025.1,07.5,0000.0,0001.93,0006.38,0000.96
2024-02-25 23:11:00,SystemResetWarning,0821.3,5.00,000.00,023.5,022.7,000.0,031.7,025.1,07.6,0000.0,0001.92,0006.42,0000.97
2024-02-25 23:12:00,SystemResetWarning,0821.2,5.00,000.00,023.5,022.7,000.0,031.7,025.1,07.5,0000.0,0001.88,0007.80,0000.96
2024-02-25 23:13:00,SystemResetWarning,0821.3,4.99,000.00,023.4,022.7,000.0,031.7,025.1,07.5,0000.0,0001.93,0008.08,0000.96
2024-02-25 23:14:00,SystemResetWarning,0821.2,4.99,000.00,023.4,022.7,000.0,031.7,025.1,07.5,0000.0,0002.02,0008.15,0000.96
2024-02-25 23:15:00,SystemResetWarning,0821.2,5.00,000.00,023.4,022.7,000.0,031.7,025.1,07.5,0000.0,0001.96,0007.95,0000.95
2024-02-25 23:16:00,SystemResetWarning,0821.3,5.01,000.00,023.4,022.7,000.0,031.7,025.1,07.6,0000.0,0001.94,0007.73,0000.93
2024-02-25 23:17:00,SystemResetWarning,0821.2,5.00,000.00,023.5,022.7,000.0,031.7,025.1,07.5,0000.0,0001.98,0008.01,0000.93
2024-02-25 23:18:00,SystemResetWarning,0821.3,4.99,000.00,023.5,022.7,000.0,031.7,025.1,07.6,0000.0,0002.06,0009.58,0000.94
2024-02-25 23:19:00,SystemResetWarning,0821.7,4.99,000.00,023.5,022.7,000.0,031.7,025.1,07.6,0000.0,0002.09,0009.82,0000.93
2024-02-25 23:20:00,SystemResetWarning,0821.6,5.00,000.00,023.5,022.7,000.0,031.7,025.2,07.6,0000.0,0002.07,0009.41,0000.93
2024-02-25 23:21:00,SystemResetWarning,0821.5,5.01,000.00,023.5,022.7,000.0,031.7,025.1,07.6,0000.0,0002.05,0009.65,0000.92
2024-02-25 23:22:00,SystemResetWarning,0821.7,5.01,000.00,023.5,022.7,000.0,031.7,025.1,07.7,0000.0,0002.03,0009.87,0000.91
2024-02-25 23:23:00,SystemResetWarning,0821.3,5.00,000.00,023.5,022.7,000.0,031.7,025.2,07.6,0000.0,0002.03,0010.15,0000.91
2024-02-25 23:24:00,SystemResetWarning,0821.2,4.99,000.00,023.5,022.7,000.0,031.7,025.1,07.6,0000.0,0002.04,0009.20,0000.90
2024-02-25 23:25:00,SystemResetWarning,0821.2,4.99,000.00,023.5,022.7,000.0,031.7,025.2,07.6,0000.0,0002.08,0009.24,0000.90
2024-02-25 23:26:00,SystemResetWarning,0821.3,5.00,000.00,023.5,022.7,000.0,031.7,025.2,07.6,0000.0,0001.96,0009.09,0000.89
2024-02-25 23:27:00,SystemResetWarning,0821.3,5.01,000.00,023.5,022.7,000.0,031.7,025.2,07.6,0000.0,0001.93,0009.01,0000.89
2024-02-25 23:28:00,SystemResetWarning,0821.2,5.01,000.00,023.5,022.7,000.0,031.7,025.2,07.6,0000.0,0001.93,0008.93,0000.90
2024-02-25 23:29:00,SystemResetWarning,0821.2,5.00,000.00,023.5,022.7,000.0,031.7,025.2,07.7,0000.0,0001.85,0007.60,0000.89
2024-02-25 23:30:00,SystemResetWarning,0821.1,5.00,000.00,023.5,022.7,000.0,031.7,025.1,07.6,0000.0,0001.82,0007.15,0000.89
2024-02-25 23:31:00,SystemResetWarning,0821.2,5.00,000.00,023.5,022.7,000.0,031.7,025.1,07.6,0000.0,0001.75,0006.88,0000.88
2024-02-25 23:32:00,SystemResetWarning,0821.2,5.00,000.00,023.5,022.7,000.0,031.7,025.2,07.6,0000.0,0001.76,0006.38,0000.89
2024-02-25 23:33:00,SystemResetWarning,0821.0,5.00,000.00,023.5,022.7,000.0,031.7,025.1,07.6,0000.0,0001.78,0005.97,0000.89
2024-02-25 23:34:00,SystemResetWarning,0821.2,5.00,000.00,023.5,022.7,000.0,031.7,025.1,07.6,0000.0,0001.84,0005.03,0000.89
2024-02-25 23:35:00,SystemResetWarning,0821.1,5.00,000.00,023.5,022.7,000.0,031.7,025.1,07.6,0000.0,0001.81,0005.13,0000.90
2024-02-25 23:36:00,SystemResetWarning,0821.3,5.00,000.00,023.5,022.6,000.0,031.7,025.1,07.6,0000.0,0001.73,0005.08,0000.91
2024-02-25 23:37:00,SystemResetWarning,0821.1,4.99,000.00,023.5,022.6,000.0,031.7,025.1,07.6,0000.0,0001.73,0004.98,0000.92
2024-02-25 23:38:00,SystemResetWarning,0821.3,4.99,000.00,023.5,022.6,000.0,031.7,025.1,07.6,0000.0,0001.82,0005.24,0000.92
2024-02-25 23:39:00,SystemResetWarning,0821.3,5.00,000.00,023.5,022.6,000.0,031.7,025.1,07.7,0000.0,0001.80,0005.10,0000.91
2024-02-25 23:40:00,SystemResetWarning,0821.1,5.00,000.00,023.5,022.7,000.0,031.7,025.1,07.7,0000.0,0001.84,0004.97,0000.92
2024-02-25 23:41:00,SystemResetWarning,0821.2,5.00,000.00,023.5,022.7,000.0,031.7,025.1,07.6,0000.0,0001.81,0004.74,0000.92
2024-02-25 23:42:00,SystemResetWarning,0821.2,5.00,000.00,023.5,022.7,000.0,031.7,025.1,07.7,0000.0,0001.91,0005.69,0000.91
2024-02-25 23:43:00,SystemResetWarning,0821.3,5.01,000.00,023.5,022.7,000.0,031.7,025.1,07.7,0000.0,0001.92,0006.32,0000.91
2024-02-25 23:44:00,SystemResetWarning,0821.2,5.00,000.00,023.5,022.7,000.0,031.7,025.1,07.8,0000.0,0001.91,0006.71,0000.93
2024-02-25 23:45:00,SystemResetWarning,0821.0,5.01,000.00,023.5,022.7,000.0,031.7,025.1,07.7,0000.0,0001.85,0006.78,0000.92
2024-02-25 23:46:00,SystemResetWarning,0821.0,5.00,000.00,023.5,022.7,000.0,031.7,025.1,07.6,0000.0,0001.95,0006.67,0000.91
2024-02-25 23:47:00,SystemResetWarning,0821.2,5.00,000.00,023.5,022.7,000.0,031.7,025.1,07.6,0000.0,0001.97,0006.61,0000.90
2024-02-25 23:48:00,SystemResetWarning,0821.1,5.00,000.00,023.5,022.7,000.0,031.7,025.1,07.7,0000.0,0001.96,0006.67,0000.88
2024-02-25 23:49:00,SystemResetWarning,0821.0,5.00,000.00,023.5,022.6,000.0,031.7,025.1,07.5,0000.0,0001.89,0007.61,0000.88
2024-02-25 23:50:00,SystemResetWarning,0821.2,5.00,000.00,023.5,022.6,000.0,031.7,025.1,07.6,0000.0,0001.86,0008.29,0000.88
2024-02-25 23:51:00,SystemResetWarning,0821.2,5.00,000.00,023.5,022.6,000.0,031.7,025.1,07.6,0000.0,0001.86,0008.88,0000.88
2024-02-25 23:52:00,SystemResetWarning,0821.1,5.00,000.00,023.5,022.6,000.0,031.7,025.1,07.6,0000.0,0001.85,0009.14,0000.87
2024-02-25 23:53:00,SystemResetWarning,0821.2,4.99,000.00,023.5,022.6,000.0,031.7,025.1,07.6,0000.0,0001.81,0009.23,0000.86
2024-02-25 23:54:00,SystemResetWarning,0821.1,5.00,000.00,023.4,022.6,000.0,031.7,025.1,07.6,0000.0,0001.78,0009.16,0000.85
2024-02-25 23:55:00,SystemResetWarning,0821.2,5.01,000.00,023.4,022.6,000.0,031.7,025.1,07.5,0000.0,0001.80,0009.43,0000.85
2024-02-25 23:56:00,SystemResetWarning,0821.2,5.00,000.00,023.4,022.6,000.0,031.7,025.1,07.6,0000.0,0001.83,0009.97,0000.85
2024-02-25 23:57:00,SystemResetWarning,0821.2,5.00,000.00,023.4,022.6,000.0,031.7,025.1,07.5,0000.0,0001.84,0010.72,0000.85
2024-02-25 23:58:00,SystemResetWarning,0821.2,5.00,000.00,023.4,022.6,000.0,031.7,025.1,07.6,0000.0,0001.89,0011.46,0000.87
2024-02-25 23:59:00,SystemResetWarning,0821.3,5.00,000.00,023.4,022.6,000.0,031.7,025.1,07.6,0000.0,0001.93,0011.54,0000.87
